www.pogodaiklimat.ru

Погода и климат >> Архив погоды >> Алжир >> Тизи-Узу


ПОГОДА в Тизи-Узу

  • Прогноз погоды в Тизи-Узу
  • Монитор погоды в Тизи-Узу

АРХИВ ПОГОДЫ в Тизи-Узу

Время (UTC), дата Ветер
(напр.,м/с)
 
Видим.   Явления Облачность Т
(С)
Тd
(С)
f
(%)
Тe
(С)
Тes
(С)
Комфортность P
(гПа)
Po
(гПа)
Тmin
(С)
Tmax
(С)
R
(мм)
R24
(мм)
S
(см)
09 9.07 штиль 0 10 км ясно +29.4 +15.1 42 +32 +51 опасность
солнечного
удара
1012.5 991.1
12 9.07 СЗ 7 10 км 1/1 900 м
[Cu med, cong]
+32.3 +13.1 31 +33 +38 жарко 1011.3 990.1
15 9.07 СЗ 8 10 км 3/0
[Ci sp]
+31.4 +14.1 35 +33 +35 жарко 1010.8 989.6
18 9.07 З 6 10 км 4/0
[Ac trans Ci sp]
+27.8 +17.1 52 +32 +32 душно 1011.4 989.9 +33.1
06 10.07 штиль 0 10 км ясно +22.2 +17.6 75 +27 +29 душно 1013.7 991.8 +20.6
09 10.07 штиль 0 10 км 1/1 1000 м
[Cu med, cong]
+28.8 +18.1 52 +33 +50 очень
душно
1013.8 992.3
12 10.07 С 2 10 км ясно +33.2 +17.8 40 +37 +58 опасность
солнечного
удара
1012.1 991.0
15 10.07 С 4 10 км ясно +33.8 +18.4 40 +38 +46 очень
душно
1010.5 989.5
18 10.07 СВ 3 10 км ясно +30.9 +16.2 41 +34 +34 душно 1010.5 989.3 +34.4
06 11.07 штиль 0 10 км ясно +21.9 +17.3 75 +26 +29 душно 1011.6 989.7 +21.3
09 11.07 штиль 0 10 км ясно +28.7 +18.1 53 +33 +52 опасность
солнечного
удара
1012.1 990.7
12 11.07 С 2 10 км ясно +34.9 +19.2 40 +40 +61 опасность
солнечного
удара
1011.4 990.4
15 11.07 З 7 10 км ясно +33.8 +21.0 47 +41 +44 опасность
перегрева
1010.5 989.5
18 11.07 З 4 10 км ясно +30.0 +20.0 55 +36 +37 очень
душно
1011.5 990.2 +35.9
06 12.07 штиль 0 10 км ясно +23.4 +18.2 73 +29 +32 душно 1012.8 991.0 +21.4
09 12.07 штиль 0 10 км ясно +31.4 +18.5 46 +36 +55 опасность
солнечного
удара
1013.4 992.1
12 12.07 штиль 0 10 км ясно +38.2 +18.2 31 +42 +70 опасность
перегрева
1012.3 991.5
15 12.07 З 3 10 км ясно +39.2 +18.1 29 +42 +52 опасность
перегрева
1011.3 990.6
18 12.07 СЗ 2 10 км ясно +36.0 +19.1 37 +41 +41 опасность
перегрева
1011.1 990.2 +39.9
06 13.07 ЮВ 2 10 км 5/0
[Ac cast]
+26.2 +12.8 43 +28 +29 жарко 1010.8 989.2 +24.9
09 13.07 СЗ 6 10 км 3/0
[Ac trans]
+30.9 +20.0 52 +37 +42 очень
душно
1012.3 991.0
12 13.07 З 7 10 км ясно +34.6 +21.3 46 +42 +47 опасность
перегрева
1011.2 990.2
15 13.07 З 8 10 км 3/0
[Ci sp]
+33.8 +21.7 49 +42 +44 опасность
перегрева
1010.3 989.3
18 13.07 З 10 10 км ясно +28.6 +21.7 66 +37 +37 очень
душно
1010.5 989.1 +35.2
06 14.07 штиль 0 10 км ясно +23.6 +20.0 80 +29 +31 душно 1010.6 988.8 +23.0
09 14.07 штиль 0 10 км ясно +30.2 +20.0 54 +36 +55 опасность
солнечного
удара
1010.2 988.9
12 14.07 СЗ 8 10 км ясно +35.7 +13.2 26 +36 +40 очень
жарко
1009.0 988.1
15 14.07 СЗ 11 10 км ясно +30.5 +18.7 49 +35 +36 очень
душно
1009.1 987.9
18 14.07 СЗ 5 10 км ясно +29.1 +20.1 58 +35 +36 очень
душно
1010.2 988.8 +36.1
06 15.07 штиль 0 10 км ясно +21.7 +19.3 86 +27 +29 душно 1011.3 989.4 +20.7
09 15.07 штиль 0 10 км ясно +28.9 +17.3 50 +33 +51 опасность
солнечного
удара
1010.9 989.5
12 15.07 СЗ 4 10 км 1/1 1000 м
[Cu med, cong]
+33.1 +15.6 35 +35 +48 душно 1010.2 989.1
15 15.07 СЗ 5 10 км 1/1 1000 м
[Cu med, cong]
+33.9 +16.6 36 +37 +42 очень
душно
1008.9 987.9
18 15.07 З 5 10 км 1/1 1000 м
[Cu med, cong]
+29.9 +17.6 48 +34 +34 очень
душно
1009.9 988.6 +34.7

 

Местоположение метеостанции Тизи-Узу (Алжир): широта 36.70 долгота 4.05 высота над уровнем моря 189 м.

В архиве по умолчанию представлена погода в Тизи-Узу за последнюю неделю. Архивные данные за месяц целиком и за предыдущие месяцы, начиная с января 2011 года, Вы можете получить, выбрав интересующий диапазон дат из раскрывающегося списка и нажав кнопку "Ввод!".


*Определитесь, кто Вы:
робот инопланетянин человек

Внимание! Время в таблицах - всемирное. Для получения местного времени необходимо прибавить поправку, которая равна 1 ч.

Смотрите также архив погоды в соседних городах и на ближайших метеорологических станциях:

Погода в Деллисе (Алжир) (26 км)
Погода в Буире (Алжир) (39 км)
Погода в Айн-Бессеме (Алжир) (58 км)
Погода Алжир аэропорт (Алжир) (74 км)
Погода в Алжире (Алжир) (85 км)
Погода в Беджая (Алжир) (91 км)
Погода в Бордж-Бу-Арреридже (Алжир) (95 км)
Погода в Мсиле (Алжир) (121 км)
Погода в Сетифе (Алжир) (122 км)
Погода в Медеа (Алжир) (127 км)

Пояснения к столбцам:

Ветер - указаны скорость ветра в м/с - средняя за 10 мин, порывы в срок и между сроками (в фигурных скобках) и направление, откуда дует ветер: С - северный, СВ - северо-восточный, В - восточный, ЮВ - юго-восточный, Ю - южный, ЮЗ - юго-западный, З - западный, СЗ - северо-западный.
Видимость - горизонтальная дальность видимости в метрах или километрах. При видимости от 1 до 10 км при отсутствии осадков обычно наблюдается дымка, при ухудшении видимости до 1 км и менее - туман. В сухую погоду видимость может ухудшаться дымом, пылью или мглою.
Явления - указаны атмосферные явления, наблюдавшиеся в срок или в последний час перед сроком; фигурными скобками обозначены явления, наблюдавшиеся между сроками (за 1-3 часа до срока); квадратными скобками обозначены град или гололедные отложения с указанием их диаметра в мм.
Облачность - указаны через наклонную черту общая и нижняя облачность в баллах и высота нижней границы облаков в метрах; квадратными скобками обозначены формы облаков: Ci - перистые, Cs - перисто-слоистые, Cc - перисто-кучевые, Ac - высококучевые, As - высокослоистые, Sc - слоисто-кучевые, Ns - слоисто-дождевые, Cu - кучевые, Cb - кучево-дождевые. Подробнее классификацию облаков см. в Атласе облаков (PDF).
T - Температура воздуха - температура, измеренная на высоте 2 м над землей.
Td - Температура точки росы - температура, при понижении до которой содержащийся в воздухе водяной пар достигнет насыщения.
f - Относительная влажность воздуха - влажноcть воздуха, измеренная на высоте 2 м над землей.
Te - Эффективная температура - температура, которую ощущает одетый по сезону человек в тени. Характеристика душности погоды. При расчете учитывается влияние влажности воздуха и скорости ветра на теплоощущения человека.
Tes - Эффективная температура на солнце - температура, которую ощущает человек, с поправкой на солнечный нагрев. Характеристика знойности погоды. Зависит от высоты солнца над горизонтом, облачности и скорости ветра. Ночью, в пасмурную погоду, а также при ветре 12 м/с и более поправка равна нулю.
P - Атмосферное давление - приведенное к уровню моря атмосферное давление.
Po - Атмосферное давление - измеренное на уровне метеостанции атмосферное давление.
Tmin - Минимальная температура - минимум температуры воздуха на высоте 2 м над землей.
Tmax - Максимальная температура - максимум температуры воздуха на высоте 2 м над землей.
R - Количество осадков - Количество выпавших осадков за период времени, мм. При наведении курсора мыши на число - период времени, за который выпало указанное количество осадков.
R24 - Количество осадков - Количество выпавших осадков за 24 часа, мм.
S - Снежный покров - Высота снежного покрова, см. При наведении курсора мыши на число - состояние снежного покрова и степень покрытия местности в баллах.